Regional Weather Roundup
Issued by NWS Sioux Falls, SD

Home | Current Version | Previous Version | Text Only | Print | Product List | Glossary Off
Versions: 1 2 3 4 5 6 7 8 9 10 11 12 13 14 15 16 17 18 19 20 21 22 23 24 25 26 27 28 29 30 31 32 33 34 35 36 37 38 39 40 41 42 43 44 45 46 47 48 49 50

000
ASUS43 KFSD 271210
RWRFSD

WEATHER ROUNDUP FOR SE SOUTH DAKOTA/SW MINNESOTA/NW IOWA
NATIONAL WEATHER SERVICE SIOUX FALLS SD
700 AM CDT MON MAR 27 2017

NOTE: "FAIR" INDICATES FEW OR NO CLOUDS BELOW 12,000 FEET WITH NO
SIGNIFICANT WEATHER AND OR OBSTRUCTIONS TO VISIBILITY.


SDZ038>040-050-052>070-271300-
SOUTHEAST SOUTH DAKOTA

CITY           SKY/WX    TMP DP  RH WIND       PRES   REMARKS
BROOKINGS      FOG       28  28 100 CALM      29.94S VSB 3/4
CHAMBERLAIN    FOG       31  31 100 CALM      29.94S VSB<1/4
6HR MIN TEMP:  29; 6HR MAX TEMP:  35;

HURON          CLOUDY    38  37  97 S3        29.94S
6HR MIN TEMP:  37; 6HR MAX TEMP:  39;

MADISON        FOG       28  28 100 CALM      29.95R VSB 3/4
MITCHELL       FOG       29  29 100 CALM      29.96S VSB 1/4
6HR MIN TEMP:  29; 6HR MAX TEMP:  38;

SIOUX FALLS    CLOUDY    40  38  93 NE3       29.96R
6HR MIN TEMP:  39; 6HR MAX TEMP:  43;

WINNER         FAIR      32  31  96 S3        29.93S
YANKTON        CLOUDY    43  39  87 E3        29.95S
$$

MNZ071-072-080-081-089-090-097-098-271300-
SOUTHWEST MINNESOTA

CITY           SKY/WX    TMP DP  RH WIND       PRES   REMARKS
FAIRMONT       CLOUDY    38  37  97 N3        29.96S
JACKSON        CLOUDY    37  37 100 NW3       29.96S
LUVERNE        CLOUDY    34  32  93 N3        29.97R
MARSHALL       CLOUDY    38  36  92 S3        29.96S
6HR MIN TEMP:  37; 6HR MAX TEMP:  39;

MONTEVIDEO     CLOUDY    36  36 100 E3        29.97F
PIPESTONE      CLOUDY    36  34  93 CALM      29.94S
REDWOOD FALLS  CLOUDY    39  35  86 N3        29.96R
TRACY          CLOUDY    40  38  92 NW5       29.96R
WINDOM         CLOUDY    39  37  93 CALM      29.96R
WORTHINGTON    CLOUDY    34  33  96 CALM      29.96R
$$

IAZ001>003-012>014-020>022-031-032-NEZ013-014-SDZ071-271300-
NORTHWEST IOWA

CITY           SKY/WX    TMP DP  RH WIND       PRES   REMARKS
CHEROKEE       CLOUDY    40  40  98 NE3       29.96S
ESTHERVILLE    CLOUDY    37  37 100 CALM      29.95S
LE MARS        CLOUDY    41  41 100 N5        29.97R
ORANGE CITY    CLOUDY    39  39 100 CALM      29.96R
SHELDON        CLOUDY    36  36 100 CALM      29.94S FOG
SIOUX CITY     CLOUDY    43  41  93 CALM      29.96S
6HR MIN TEMP:  42; 6HR MAX TEMP:  45;

SPENCER        CLOUDY    37  36  96 NW3       29.95F FOG
6HR MIN TEMP:  37; 6HR MAX TEMP:  41;

STORM LAKE     CLOUDY    39  37  93 N6        29.95S
$$

ABBREVIATIONS USED IN REMARKS
   TC - TEMPERATURE IN CELSIUS
  WCI - WIND CHILL INDEX
   HX - HEAT INDEX
  VSB - VISIBILITY





USA.gov is the U.S. government's official web portal to all federal, state and local government web resources and services.